Regional Weather Roundup
Issued by NWS Newport/Morehead, NC

Current Version | Previous Version | Graphics & Text | Print | Product List | Glossary On
Versions: 1 2 3 4 5 6 7 8 9 10 11 12 13 14 15 16 17 18 19 20 21 22 23 24 25 26 27 28 29 30 31 32 33 34 35 36 37 38 39 40 41 42 43 44 45 46 47 48 49 50
000 ASUS42 KMHX 120625 RWRMHX WEATHER ROUNDUP FOR EASTERN NORTH CAROLINA NATIONAL WEATHER SERVICE NEWPORT/MOREHEAD CITY NC 100 AM EST TUE DEC 12 2017 NOTE: "FAIR" INDICATES FEW OR NO CLOUDS BELOW 12,000 FEET WITH NO SIGNIFICANT WEATHER AND/OR OBSTRUCTIONS TO VISIBILITY NCZ015>017-031-032-045>047-102-103-120700- NORTH COAST CITY SKY/WX TMP DP RH WIND PRES REMARKS EDENTON CLEAR 42 37 81 SW7 29.93F ELIZABETH CITY CLEAR 40 38 93 S7 29.93F KITTY HAWK CLEAR 43 36 76 CALM 29.91F MANTEO CLEAR 36 34 94 CALM 29.93F $$ NCZ045>047-081-094-103-104-120700- CENTRAL COAST CITY SKY/WX TMP DP RH WIND PRES REMARKS FRISCO CLEAR 38 37 97 W3 29.93F $$ NCZ095-097-098-100-101-120700- SOUTHERN COAST CITY SKY/WX TMP DP RH WIND PRES REMARKS BEAUFORT CLEAR 37 35 92 W6 29.95F CEDAR ISLAND NOT AVBL JACKSONVILLE CLEAR 40 35 83 SW5 29.95F PINEY ISLAND N/A N/A N/A N/A SW8 29.94F WILMINGTON CLEAR 35 33 92 S3 29.96F $$ NCZ011>013-027>030-043-044-078>080-089-090>093-098-120700- COASTAL PLAIN CITY SKY/WX TMP DP RH WIND PRES REMARKS AHOSKIE CLEAR 34 28 80 S5 29.90F CLINTON CLEAR 39 35 84 S3 29.92F ELIZABETHTOWN NOT AVBL GOLDSBORO CLEAR 37 29 74 S3 29.90F GREENVILLE CLEAR 34 30 86 S3 29.94F HAVELOCK CLEAR 37 34 89 SW6 29.96F KENANSVILLE CLEAR 32 30 93 CALM 29.93F KINSTON CLEAR 34 31 88 S3 29.93F NEW BERN CLEAR 35 33 92 SW5 29.96F RICHLANDS CLEAR 31 30 96 CALM 29.95F ROCKY MOUNT CLEAR 38 30 73 S5 29.90F WASHINGTON CLEAR 36 32 85 S3 29.93F WHITEVILLE CLEAR 40 35 81 S5 29.93F $$ AMZ130-135-150-152-154-156-158-170-250-252-270-ANZ085-086-088-633-658-670-120700- MARINE OBSERVATIONS STATION/POSITION TIME TEMP WIND PRES WAVE SWELL AIR SEA DIR/SP/G HT/PER HT/PER (UTC) (F) (DEG/KT/KT) (MB) (FT/S) (FT/S) CHESAPEAKE LIGHT NOT AVBL 64 E VA BEACH 0550 52 59 220/ 14/ 17 1013.9 2/ 8 2/ 8 DUCK 0600 46 54 170/ 8/ 9 1012.6 2 E DUCK 0530 54 N/A 2/ 8 OREGON INLET 0600 190/ 2/ 3 N/A 13E OREGON INLT 0548 56 N/A 2/ 9 2/ 9 HATTERAS CG 0600 48 54 CALM 1012.9 DIAMOND BUOY 0610 61 76 260/ 10/ 16 1013.0 CAPE LOOKOUT 0600 250/ 10/ 13 1014.2 BEAUFORT LAB 0600 47 51 290/ 4/ 8 1014.1 30 SE NEW RVR IN 0608 56 68 260/ 14/ 19 1014.4 30 SE NEW RVR IN 0530 68 N/A 3/ 6 27 SE WRIGHTSVLE 0508 55 66 240/ 14/ 19 1015.2 5 SE WRIGHTSVLE 0508 53 58 250/ 10/ 12 1015.0 225 S CAPE HAT 0550 68 76 230/ 14/ 19 1016.2 4/ 6 2/ 8 41 SE CHARLESTON 0610 74 250/ 19/ 25 1015.0 $$

USA.gov is the U.S. government's official web portal to all federal, state and local government web resources and services.